New Iberia, LA

6:57 AM CDT on June 28, 2017 (GMT -0500)
Acadiana Regional

Weather History for KARA - March, 2014

Change the Weather History Date:

Wednesday, March 12, 2014

  Actual Average Record
Temperature  
Mean Temperature 60 °F 61 °F  
Max Temperature 70 °F 72 °F 82 °F (1985)
Min Temperature 49 °F 51 °F 33 °F (1996)
Degree Days  
Heating Degree Days 5 5  
Month to date heating degree days 103 73  
Since 1 July heating degree days 1627 1289  
Cooling Degree Days 0 1  
Month to date cooling degree days 10 12  
Year to date cooling degree days 28 43  
Growing Degree Days 10 (Base 50)    
Moisture  
Dew Point 52 °F    
Average Humidity 68    
Maximum Humidity 97    
Minimum Humidity 39    
Precipitation  
Precipitation T in 0.13 in 1.36 in (2015)
Month to date precipitation 0.58 1.58  
Year to date precipitation 8.92 10.99  
Sea Level Pressure  
Sea Level Pressure 29.91 in    
Wind  
Wind Speed 13 mph (NW)    
Max Wind Speed 28 mph    
Max Gust Speed 35 mph    
Visibility 8 miles    
Events Rain    
T = Trace of Precipitation, MM = Missing Value Source: NWS Daily Summary

Daily Weather History Graph

Daily Weather History Graph

Search for Another Location

Airport or City:

Trip Planner

Search our weather history database for the weather conditions in past years. The results will help you decide how hot, cold, wet, or windy it might be!

Date:

Astronomy

Mar. 12, 2014 Rise Set
Actual Time 7:20 AM CDT 7:13 PM CDT
Civil Twilight 6:57 AM CDT 7:37 PM CDT
Nautical Twilight 6:29 AM CDT 8:05 PM CDT
Astronomical Twilight 6:01 AM CDT 8:33 PM CDT
Moon 3:56 PM CDT (3/12) 4:39 AM CDT (3/12)
Length of Visible Light 12h 40m
Length of Day
11h 53m
Waxing Gibbous, 85% of the Moon is Illuminated
Mar 12
Waxing Gibbous
Mar 16
Full
Mar 23
Last Quarter
Mar 30
New
Apr 7
First Quarter

Hourly Weather History & Observations

Time (CDT) Temp. Dew Point Humidity Pressure Visibility Wind Dir Wind Speed Gust Speed Precip Events Conditions
12:41 AM 59.0 °F 57.9 °F 96% 29.76 in 6.0 mi SSW 4.6 mph - N/A   Mostly Cloudy
12:53 AM 60.1 °F 57.9 °F 93% 29.76 in 6.0 mi South 3.5 mph - N/A   Overcast
1:53 AM 61.0 °F 57.9 °F 90% 29.77 in 7.0 mi SW 8.1 mph - N/A   Overcast
1:55 AM 61.0 °F 57.9 °F 90% 29.77 in 7.0 mi SW 6.9 mph - N/A   Overcast
2:53 AM 61.0 °F 59.0 °F 93% 29.75 in 7.0 mi SW 8.1 mph - N/A   Overcast
3:33 AM 62.1 °F 60.1 °F 93% 29.75 in 9.0 mi SW 6.9 mph - N/A   Overcast
3:53 AM 63.0 °F 60.1 °F 90% 29.75 in 10.0 mi WSW 9.2 mph - N/A   Overcast
4:53 AM 63.0 °F 59.0 °F 87% 29.77 in 10.0 mi WSW 9.2 mph - N/A   Overcast
5:53 AM 63.0 °F 59.0 °F 87% 29.79 in 10.0 mi WSW 6.9 mph - N/A   Overcast
6:46 AM 62.1 °F 57.9 °F 86% 29.81 in 10.0 mi WSW 13.8 mph - N/A   Overcast
6:53 AM 62.1 °F 57.9 °F 86% 29.82 in 10.0 mi West 11.5 mph - N/A   Overcast
7:53 AM 62.1 °F 57.9 °F 86% 29.85 in 8.0 mi West 11.5 mph - N/A   Overcast
8:53 AM 62.1 °F 59.0 °F 90% 29.89 in 2.0 mi WNW 10.4 mph - N/A   Overcast
9:08 AM 62.1 °F 59.0 °F 90% 29.89 in 1.5 mi West 9.2 mph - 0.00 in Rain Light Rain
9:19 AM 62.1 °F 59.0 °F 90% 29.90 in 1.5 mi WNW 9.2 mph - 0.00 in   Overcast
9:39 AM 62.1 °F 60.1 °F 93% 29.91 in 1.5 mi West 8.1 mph - 0.00 in Rain Light Rain
9:53 AM 62.1 °F 59.0 °F 90% 29.91 in 1.5 mi NW 9.2 mph - 0.00 in Rain Light Rain
10:17 AM 62.1 °F 59.0 °F 90% 29.92 in 5.0 mi NNW 12.7 mph - 0.00 in   Overcast
10:22 AM 63.0 °F 59.0 °F 87% 29.92 in 6.0 mi NNW 12.7 mph - 0.00 in   Overcast
10:53 AM 64.9 °F 57.9 °F 78% 29.93 in 8.0 mi NNW 10.4 mph - 0.00 in   Mostly Cloudy
11:53 AM 64.9 °F 53.1 °F 65% 29.96 in 10.0 mi North 16.1 mph - N/A   Overcast
12:32 PM 66.0 °F 51.1 °F 59% 29.97 in 10.0 mi North 15.0 mph - N/A   Overcast
12:53 PM 66.9 °F 50.0 °F 54% 29.98 in 10.0 mi North 19.6 mph - N/A   Scattered Clouds
1:53 PM 68.0 °F 46.9 °F 47% 29.97 in 10.0 mi North 20.7 mph 31.1 mph N/A   Clear
2:53 PM 69.1 °F 46.9 °F 45% 29.96 in 10.0 mi North 20.7 mph - 0.00 in   Clear
3:53 PM 69.1 °F 45.0 °F 42% 29.97 in 10.0 mi North 20.7 mph 27.6 mph N/A   Clear
4:53 PM 68.0 °F 43.0 °F 40% 29.97 in 10.0 mi North 25.3 mph 32.2 mph N/A   Clear
5:53 PM 66.9 °F 42.1 °F 40% 29.99 in 10.0 mi North 19.6 mph 34.5 mph N/A   Clear
6:53 PM 63.0 °F 37.9 °F 40% 30.02 in 10.0 mi North 19.6 mph 27.6 mph N/A   Clear
7:53 PM 60.1 °F 37.0 °F 42% 30.06 in 10.0 mi North 12.7 mph - N/A   Clear
8:53 PM 55.9 °F 36.0 °F 47% 30.10 in 10.0 mi North 11.5 mph - N/A   Clear
9:53 PM 55.0 °F 36.0 °F 49% 30.14 in 10.0 mi North 9.2 mph - N/A   Clear
10:53 PM 50.0 °F 36.0 °F 59% 30.17 in 10.0 mi North 8.1 mph - N/A   Clear
11:53 PM 48.9 °F 35.1 °F 59% 30.19 in 10.0 mi North 8.1 mph - N/A   Clear